Weather in Verkh-Lyukino

Russia / Udmurt Republic     58°10′20″N   53°19′41″E
temp.,
°C
wind,
m/s
gust,
m/s
humid.,
%
clouds,
%
prec.,
mm/h
press.,
hPa
HPBL,
m
19 april, mon
mon1901:00−2ene310725 0.0 1033340
04:00−3ene37782 0.0 1035231
07:00−3ene37700 0.0 1035266
10:00+1e46430 0.0 10361335
13:00+4e35391 0.0 10351515
16:00+4ene34390 0.0 10341554
19:00+1ene22690 0.0 103435
22:00−3ene24823 0.0 103562
20 april, tue
tue2001:00−4e11855 0.0 103617
04:00−5e11825 0.0 103711
07:000e11565 0.0 103698
10:00+5ene11385 0.0 1036915
13:00+7w01361 0.0 10341217
16:00+7wnw11375 0.0 10331186
19:00+4w11660 0.0 103210
22:00−1ene11810 0.0 103310
21 april, wed
wed2101:00−1e11810 0.0 103310
04:00−2se11820 0.0 103310
07:00+2se25615 0.0 1032141
10:00+7se4641100 0.0 1030816
13:00+10sse5738100 0.0 10291329
16:00+10sse5942100 0.0 10271405
19:00+7sse41151100 0.0 1026469
22:00+5sse41359100 0.0 1026509
22 april, thu
thu2201:00+5sse41262100 0.0 1026483
04:00+3s41377100 0.3 1026738
07:00+3sse51387100 0.3 1026781
10:00+3s51296100 1.6 1026800
13:00+3s51297100 0.9 1026754
16:00+3s51097100 1.8 1026837
19:00+4s41196100 0.1 1027672
22:00+4s41189100 0.1 1027525
23 april, fri
fri2301:00+3sse3995100 0.0 1026371
04:00+3sse3897100 0.1 1027326
07:00+3sse3898100 0.1 1027343
10:00+4s3795100 0.1 1027392
13:00+5s3593100 0.0 1028404
16:00+8s348097 0.0 1027689
19:00+6s368997 0.0 1028373
22:00+4sse3796100 0.0 1028281